Regional Weather Roundup
Issued by NWS Newport/Morehead, NC

Current Version | Previous Version | Graphics & Text | Print | Product List | Glossary Off
Versions: 1 2 3 4 5 6 7 8 9 10 11 12 13 14 15 16 17 18 19 20 21 22 23 24 25 26 27 28 29 30 31 32 33 34 35 36 37 38 39 40 41 42 43 44 45 46 47 48 49 50

000
ASUS42 KMHX 191413
RWRMHX
WEATHER ROUNDUP FOR EASTERN NORTH CAROLINA
NATIONAL WEATHER SERVICE NEWPORT/MOREHEAD CITY NC
1000 AM EDT THU OCT 19 2017

NOTE: "FAIR" INDICATES FEW OR NO CLOUDS BELOW 12,000 FEET
WITH NO SIGNIFICANT WEATHER AND/OR OBSTRUCTIONS TO VISIBILITY

NCZ015>017-031-032-045>047-102-103-191500-
NORTH COAST

CITY           SKY/WX    TMP DP  RH WIND       PRES   REMARKS
EDENTON        SUNNY     66  60  80 CALM      30.30S
ELIZABETH CITY SUNNY     67  60  78 CALM      30.29S
KITTY HAWK     SUNNY     70  58  65 CALM      30.28S
MANTEO         SUNNY    N/A N/A N/A E9        30.29S

$$

NCZ045>047-081-094-103-104-191500-
CENTRAL COAST

CITY           SKY/WX    TMP DP  RH WIND       PRES   REMARKS
FRISCO         SUNNY     74  63  68 NE7       30.27R

$$

NCZ095-097-098-100-101-191500-
SOUTHERN COAST

CITY           SKY/WX    TMP DP  RH WIND       PRES   REMARKS
BEAUFORT       SUNNY     72  63  73 NE12      30.27R
CEDAR ISLAND   NOT AVBL
JACKSONVILLE   SUNNY     68  61  78 NE6       30.27S
PINEY ISLAND     N/A    N/A N/A N/A NE13      30.27R
WILMINGTON     SUNNY     69  59  70 NE10      30.27R


$$

NCZ011>013-027>030-043-044-078>080-089-090>093-098-191500-
COASTAL PLAIN

CITY           SKY/WX    TMP DP  RH WIND       PRES   REMARKS
AHOSKIE        SUNNY     57  55  91 CALM      30.30S
CLINTON        SUNNY     62  57  84 NE3       30.31R
ELIZABETHTOWN  NOT AVBL
GOLDSBORO      SUNNY     63  57  80 NE5       30.28S
GREENVILLE     SUNNY     59  55  88 CALM      30.30S
HAVELOCK       SUNNY     70  62  76 NE10      30.28S
KENANSVILLE    SUNNY     61  57  88 NE3       30.30S
KINSTON        SUNNY     63  57  82 N5        30.30S
NEW BERN       SUNNY     69  62  78 NE5       30.29S
RICHLANDS      SUNNY     65  59  81 NE7       30.29S
ROCKY MOUNT    SUNNY     62  57  83 CALM      30.31S
WASHINGTON     SUNNY     63  58  84 E3        30.29F
WHITEVILLE     SUNNY     62  56  80 NE3       30.28S

$$

AMZ130-135-150-152-154-156-158-170-250-252-270-ANZ085-086-088-633-658-670-191500-
MARINE OBSERVATIONS

STATION/POSITION TIME  TEMP    WIND        PRES    WAVE   SWELL
                       AIR SEA DIR/SP/G            HT/PER HT/PER
                 (UTC) (F)     (DEG/KT/KT) (MB)    (FT/S) (FT/S)
CHESAPEAKE LIGHT NOT AVBL
64 E VA BEACH    1350   68 67   90/  8/  8 1026.1    3/ 8   3/ 8
DUCK             1348   70 69   90/ 12/ 13 1025.1
2 E DUCK         1400      69                N/A     3/ 8
OREGON INLET     1336   69 65   40/ 11/ 13 1025.3
13E OREGON INLT  1348      71                N/A     5/ 9   3/ 9
HATTERAS CG      1348   69 68   30/ 10/ 13 1024.8
DIAMOND BUOY     1350   75 81   50/ 10/ 16 1024.0    5/ 9   3/ 9
CAPE LOOKOUT     1400   69      10/ 13/ 16 1024.5
BEAUFORT LAB     1348   69 69   20/ 10/ 12 1025.1
30 SE NEW RVR IN 1308   72      40/ 16/ 21 1023.6
30 SE NEW RVR IN NOT AVBL
27 SE WRIGHTSVLE 1308   73 77   60/ 17/ 23 1023.4
5 SE WRIGHTSVLE  1308   69 74   50/ 14/ 21 1024.2
225 S CAPE HAT   1350   77 80   50/ 19/ 23 1020.2    8/ 8
41 SE CHARLESTON 1400   75 80   40/ 17/ 21 1022.9

$$




USA.gov is the U.S. government's official web portal to all federal, state and local government web resources and services.